Regional Weather Roundup
Issued by NWS

Home | Current Version | Previous Version | Text Only | Print | Product List | Glossary Off
Versions: 1 2 3 4 5 6 7 8 9 10 11 12 13 14 15 16 17 18 19 20 21 22 23 24 25 26 27 28 29 30 31 32 33 34 35 36 37 38 39 40 41 42 43 44 45 46 47 48 49 50

000
ASUS43 KDTX 280901
RWRMI
MICHIGAN HOURLY REGIONAL WEATHER ROUNDUP
NATIONAL WEATHER SERVICE DETROIT/PONTIAC MI
400 AM EST SUN DEC 28 2014

NOTE: "FAIR" INDICATES FEW OR NO CLOUDS BELOW 12,000 FEET WITH NO
SIGNIFICANT WEATHER AND/OR OBSTRUCTION TO VISIBILITY.

MIZ047>049-052>055-059>063-066>070-074>076-081>083-281000-
SOUTHEAST LOWER MICHIGAN

CITY           SKY/WX    TMP DP  RH WIND       PRES   REMARKS
ADRIAN         CLOUDY    35  29  78 W6        30.03F WCI  30
ALMA           CLOUDY    32  31  96 W3        30.02S
ANN ARBOR      CLOUDY    35  29  78 W12       30.01R WCI  27
BAD AXE        CLOUDY    33  29  86 NW5       29.99S WCI  28
CARO           CLOUDY    34  31  89 NW5       30.00R WCI  30
DETROIT CITY   CLOUDY    39  29  67 NW7       30.00F WCI  34
DETROIT        CLOUDY    37  29  72 W7        30.01S WCI  32
FLINT          CLOUDY    37  31  78 W6        30.01R WCI  32
GROSSE ILE     CLOUDY    37  30  75 W6        30.00S WCI  33
HILLSDALE      CLOUDY    34  31  88 W6        30.01F WCI  29
HOWELL         CLOUDY    34  32  91 W8        30.00S WCI  27

CITY           SKY/WX    TMP DP  RH WIND       PRES   REMARKS
JACKSON        CLOUDY    34  29  82 W9        30.01F WCI  27
LAMBERTVILLE   CLOUDY    36  32  87 W5        30.03S WCI  32
LANSING        CLOUDY    35  31  85 W7        30.02S WCI  29
LAPEER         CLOUDY    35  32  88 NW5       29.99R WCI  31
MASON          CLOUDY    33  30  88 W5        30.01F WCI  29
MONROE         CLOUDY    37  30  75 W5        30.00F WCI  34
MT. CLEMENS    CLOUDY    37  32  81 W9        29.97S WCI  31
PONTIAC        CLOUDY    35  30  82 W12       29.98R WCI  27
PORT HOPE        N/A     34  25  69 NW13      29.97R WCI  25
PORT HURON     MIX PCPN  36  32  87 W9        29.99R WCI  29
TRI CITIES     CLOUDY    35  30  82 W5        30.01R WCI  31
TROY           CLOUDY    38  31  75 W7G16     30.01S WCI  33
SAGINAW HB     CLOUDY    34  32  93 W5        30.01R WCI  30
$$
MIZ043>046-050>051-056>058-064>065-071>073-077>080-281000-
SOUTHWEST LOWER MICHIGAN

CITY           SKY/WX    TMP DP  RH WIND       PRES   REMARKS
BATTLE CREEK   CLOUDY    35  29  78 W12       30.03S WCI  27
BENTON HARBOR  CLOUDY    33  27  78 NW7       30.09S WCI  27
BIG RAPIDS     CLOUDY    32  29  89 NW9G17    30.01R WCI  24
COLDWATER      CLOUDY    33  30  89 W7        30.03F WCI  27
FREMONT        CLOUDY    31  26  84 NW10      30.05R WCI  22
HOLLAND        CLOUDY    35  27  72 W13       30.07S WCI  26
GRAND RAPIDS   CLOUDY    33  30  88 NW13      30.04S WCI  24
IONIA          CLOUDY    34  33  94 W8        30.02S WCI  28
KALAMAZOO      MIX PCPN  35  29  78 W7        30.04F WCI  29
MARSHALL       CLOUDY    33  30  90 W5        30.02F WCI  28
MOUNT PLEASANT CLOUDY    33  31  91 CALM      30.01R
MUSKEGON       CLOUDY    33  26  75 NW12      30.06S WCI  24
SOUTH HAVEN    CLOUDY    35  28  76 NW10G16   30.07F WCI  27
$$
MIZ016>042-281000-
NORTHERN LOWER MICHIGAN

CITY           SKY/WX    TMP DP  RH WIND       PRES   REMARKS
ALPENA         CLOUDY    31  23  72 W3        29.96R
BEAVER ISLAND  PTCLDY    26  19  75 W9        29.98R WCI  17
BELLAIRE       CLOUDY    32  24  72 W5        29.99R WCI  27
CADILLAC       CLOUDY    29  25  84 W14       29.97R WCI  18
CHARLEVOIX     CLOUDY    31  25  78 NW12      30.00R WCI  21
FRANKFORT      CLOUDY    29  24  80 NW10G17   30.03R WCI  20
GAYLORD        CLOUDY    29  22  75 W8        29.93R WCI  21
GRAYLING       CLOUDY    30  28  92 W9        29.96R WCI  22
HARBOR SPRINGS MOCLDY    30  21  70 W7        29.96R WCI  23
HOUGHTON LAKE  CLOUDY    31  27  85 W8        29.96R WCI  23
MANISTEE       CLOUDY    30  21  69 NW14      30.04S WCI  20
OSCODA         CLOUDY    32  26  78 W3        29.97R
PELLSTON       PTCLDY    28  22  78 NW13      29.96R WCI  17
ROGERS CITY    CLOUDY    31  26  82 W3        29.96S
TRAVERSE CITY  CLOUDY    32  23  69 W14       30.00R WCI  22
$$
MIZ007>008-015-281000-
EASTERN UPPER MICHIGAN

CITY           SKY/WX    TMP DP  RH WIND       PRES   REMARKS
KINROSS        CLOUDY    27  25  93 W9        29.92S WCI  17
MACKINAC ISLAN PTCLDY    28  21  76 NW12      29.94S WCI  18
NEWBERRY       CLOUDY    22  19  89 SW8       29.94S WCI  13
S. S. MARIE    CLOUDY    28  20  71 W15G23    29.93R WCI  16
MUNISING         N/A     22  14  71 SW8       29.96S WCI  12
$$
MIZ004>006-011>014-085-281000-
CENTRAL UPPER MICHIGAN

CITY           SKY/WX    TMP DP  RH WIND       PRES   REMARKS
MANISTIQUE     CLOUDY    22  18  87 W6        29.98S WCI  14
ESCANABA       MOCLDY    19  14  79 W10       29.99S WCI   8
MENOMINEE      CLEAR     21  16  79 W6        30.03S WCI  14
SAWYER-GWINN   MOCLDY    15  11  84 W5        29.94S WCI   8
$$
MIZ001>003-009>011-084-281000-
WESTERN UPPER MICHIGAN

CITY           SKY/WX    TMP DP  RH WIND       PRES   REMARKS
IRON MOUNTAIN    N/A     14  10  84 W3        29.96S
HOUGHTON       LGT SNOW  23  18  81 NW15      29.91S WCI  10
COPPER HARBOR    N/A     26  19  74 N15       29.93R WCI  14
IRONWOOD       CLOUDY    16  12  86 W9        29.96S WCI   4
$$

ABBREVIATIONS USED IN REMARKS
   TC - TEMPERATURE IN CELSIUS
  WCI - WIND CHILL INDEX
   HX - HEAT INDEX
  VSB - VISIBILITY




USA.gov is the U.S. government's official web portal to all federal, state and local government web resources and services.